Location: Unspecified
(0.0000°N, 0.0000°E)
Time: 00:22:51
(UTC+00:00)

CZ-3B DEB - Pass Details

Date: 18 December 2025
Orbit: 439 x 40833 km, 23.6° (Epoch: 17 December)

Event Time Altitude Azimuth Distance (km) Brightness Sun altitude
Rises 16:08:34 0° 291° (WNW) 8,846 ? 24.7°
Reaches altitude 10° 16:12:54 10° 296° (WNW) 9,142 ? 23.7°
Maximum altitude 18:46:29 62° 329° (NNW) 32,349 ? -11.4°
Drops below altitude 10° 03:39:14 10° 156° (SSE) 3,399 ? -31.3°
Sets 03:41:29 0° 139° (SE) 3,685 ? -30.8°
